UAL2000 KPAE-PANC

Flight info

Callsign UAL2000
Flight time 3h 6m
Altitude 40000
Route PERLL ARRIE J523 YZP Q801 JOH PTERS3
Aircraft B77W/H-SDE1E2E3FGHIJ2J3J4J5M1RWXY/LB1D1

Departure

Time 2026-04-23 00:00
Airport Seattle Paine Field International Airport (KPAE)

Arrival

Time 2026-04-23 03:06
Airport Ted Stevens Anchorage International Airport (PANC)
Time Latitude Longitude Altitude Speed Heading
2026-04-22 23:19 47.91667 -122.28149 572 ft 0 kts 90°
2026-04-22 23:55 47.91673 -122.28074 576 ft 9 kts 68°
2026-04-22 23:55 47.91721 -122.28046 576 ft 8 kts 357°
2026-04-22 23:55 47.91783 -122.28048 574 ft 10 kts 360°
2026-04-22 23:56 47.91862 -122.28047 573 ft 15 kts
2026-04-22 23:56 47.91982 -122.28046 577 ft 18 kts
2026-04-22 23:56 47.92109 -122.28047 576 ft 19 kts 355°
2026-04-22 23:56 47.92182 -122.28153 579 ft 15 kts 253°
2026-04-22 23:57 47.92167 -122.28305 572 ft 15 kts 264°
2026-04-22 23:57 47.92159 -122.28421 574 ft 0 kts 264°
2026-04-22 23:59 47.92156 -122.28461 575 ft 16 kts 264°
2026-04-23 00:00 47.91410 -122.28582 585 ft 161 kts 182°
2026-04-23 00:00 47.90158 -122.28759 2073 ft 186 kts 198°
2026-04-23 00:00 47.88925 -122.29636 3895 ft 217 kts 210°
2026-04-23 00:01 47.87522 -122.30895 4702 ft 248 kts 214°
2026-04-23 00:01 47.86035 -122.32333 5838 ft 259 kts 215°
2026-04-23 00:01 47.84508 -122.33852 7035 ft 270 kts 216°
2026-04-23 00:01 47.82943 -122.35432 8143 ft 281 kts 217°
2026-04-23 00:02 47.81293 -122.37109 9323 ft 290 kts 218°
2026-04-23 00:02 47.79603 -122.38836 10463 ft 301 kts 218°
2026-04-23 00:02 47.77810 -122.40676 11159 ft 327 kts 218°
2026-04-23 00:02 47.75834 -122.42709 11500 ft 364 kts 218°
2026-04-23 00:03 47.73699 -122.44896 12180 ft 386 kts 218°
2026-04-23 00:03 47.72191 -122.46433 12955 ft 392 kts 218°
2026-04-23 00:03 47.71011 -122.47633 13613 ft 395 kts 218°
2026-04-23 00:03 47.68718 -122.49967 14814 ft 401 kts 218°
2026-04-23 00:04 47.66403 -122.52324 16021 ft 405 kts 218°
2026-04-23 00:04 47.64064 -122.54706 17204 ft 411 kts 218°
2026-04-23 00:04 47.61730 -122.57185 18254 ft 411 kts 224°
2026-04-23 00:04 47.59965 -122.60439 19046 ft 413 kts 246°
2026-04-23 00:05 47.59092 -122.64458 20010 ft 411 kts 264°
2026-04-23 00:05 47.59049 -122.68681 21006 ft 411 kts 279°
2026-04-23 00:05 47.59693 -122.72800 21930 ft 413 kts 294°
2026-04-23 00:05 47.61009 -122.76572 22704 ft 416 kts 302°
2026-04-23 00:06 47.62478 -122.80321 23507 ft 424 kts 303°
2026-04-23 00:06 47.63987 -122.84114 24310 ft 429 kts 302°
2026-04-23 00:06 47.65498 -122.87938 25226 ft 430 kts 301°
2026-04-23 00:06 47.66994 -122.91775 26131 ft 430 kts 300°
2026-04-23 00:07 47.68484 -122.95648 26952 ft 433 kts 299°
2026-04-23 00:07 47.69973 -122.99557 27712 ft 436 kts 298°
2026-04-23 00:07 47.71470 -123.03506 28462 ft 439 kts 298°
2026-04-23 00:07 47.72970 -123.07480 29149 ft 443 kts 298°
2026-04-23 00:08 47.74481 -123.11492 29777 ft 446 kts 297°
2026-04-23 00:08 47.76003 -123.15536 30350 ft 449 kts 297°
2026-04-23 00:08 47.77532 -123.19604 30803 ft 453 kts 297°
2026-04-23 00:08 47.79070 -123.23697 31361 ft 453 kts 297°
2026-04-23 00:09 47.80601 -123.27777 32045 ft 450 kts 297°
2026-04-23 00:09 47.82122 -123.31840 32751 ft 447 kts 297°
2026-04-23 00:09 47.83633 -123.35880 33412 ft 445 kts 297°
2026-04-23 00:09 47.85135 -123.39901 34046 ft 443 kts 297°
2026-04-23 00:10 47.86615 -123.43872 34513 ft 444 kts 297°
2026-04-23 00:10 47.88122 -123.47922 34835 ft 448 kts 297°
2026-04-23 00:10 47.89637 -123.51996 35187 ft 450 kts 297°
2026-04-23 00:10 47.91164 -123.56102 35582 ft 452 kts 297°
2026-04-23 00:11 47.92689 -123.60205 35943 ft 453 kts 297°
2026-04-23 00:11 47.94219 -123.64325 36293 ft 455 kts 298°
2026-04-23 00:11 47.95734 -123.68415 36643 ft 456 kts 298°
2026-04-23 00:11 47.97271 -123.72573 37031 ft 457 kts 298°
2026-04-23 00:12 47.98813 -123.76749 37420 ft 458 kts 298°
2026-04-23 00:12 48.00351 -123.80920 37797 ft 460 kts 298°
2026-04-23 00:12 48.01893 -123.85111 38189 ft 460 kts 298°
2026-04-23 00:12 48.03437 -123.89314 38549 ft 461 kts 298°
2026-04-23 00:13 48.04981 -123.93524 38851 ft 462 kts 298°
2026-04-23 00:13 48.06528 -123.97750 39148 ft 463 kts 298°
2026-04-23 00:13 48.08050 -124.01912 39458 ft 462 kts 298°
2026-04-23 00:13 48.09591 -124.06135 39762 ft 462 kts 298°
2026-04-23 00:14 48.11131 -124.10359 39988 ft 464 kts 298°
2026-04-23 00:14 48.14243 -124.18920 40063 ft 468 kts 298°
2026-04-23 00:15 48.17335 -124.27453 40065 ft 461 kts 298°
2026-04-23 00:15 48.20359 -124.35824 40073 ft 459 kts 298°
2026-04-23 00:16 48.23392 -124.44250 40072 ft 459 kts 298°
2026-04-23 00:16 48.26420 -124.52684 40077 ft 459 kts 298°
2026-04-23 00:17 48.29142 -124.59506 40076 ft 459 kts 307°
2026-04-23 00:17 48.33511 -124.66559 40377 ft 463 kts 319°
2026-04-23 00:17 48.36067 -124.69506 40693 ft 463 kts 323°
2026-04-23 00:18 48.38698 -124.72296 40992 ft 463 kts 324°
2026-04-23 00:18 48.44015 -124.77897 41082 ft 468 kts 323°
2026-04-23 00:19 48.49287 -124.83609 41079 ft 462 kts 323°
2026-04-23 00:19 48.54458 -124.89262 41085 ft 458 kts 322°
2026-04-23 00:20 48.59612 -124.94911 41092 ft 456 kts 322°
2026-04-23 00:20 48.64747 -125.00551 41091 ft 456 kts 322°
2026-04-23 00:21 48.70718 -125.07127 41093 ft 457 kts 322°
2026-04-23 00:21 48.74992 -125.11847 41094 ft 458 kts 322°
2026-04-23 00:22 48.80153 -125.17560 41088 ft 459 kts 322°
2026-04-23 00:22 48.81863 -125.19455 41090 ft 459 kts 322°
2026-04-23 00:23 48.95717 -125.34878 41078 ft 462 kts 322°
2026-04-23 00:24 49.00870 -125.40642 41072 ft 462 kts 322°
2026-04-23 00:24 49.06073 -125.46475 41070 ft 463 kts 322°
2026-04-23 00:25 49.11264 -125.52304 41070 ft 463 kts 322°
2026-04-23 00:25 49.16417 -125.58102 41068 ft 463 kts 322°
2026-04-23 00:26 49.21593 -125.63942 41075 ft 462 kts 322°
2026-04-23 00:26 49.26778 -125.69811 41070 ft 462 kts 322°
2026-04-23 00:27 49.31912 -125.75637 41068 ft 461 kts 322°
2026-04-23 00:27 49.37065 -125.81500 41050 ft 460 kts 322°
2026-04-23 00:28 49.42197 -125.87354 41045 ft 458 kts 322°
2026-04-23 00:28 49.47320 -125.93215 41036 ft 458 kts 322°
2026-04-23 00:29 49.52401 -125.99043 41034 ft 458 kts 322°
2026-04-23 00:29 49.57507 -126.04915 41025 ft 458 kts 322°
2026-04-23 00:30 49.62606 -126.10795 41029 ft 458 kts 322°
2026-04-23 00:30 49.67705 -126.16690 41024 ft 458 kts 322°
2026-04-23 00:31 49.72805 -126.22602 41030 ft 458 kts 322°
2026-04-23 00:31 49.77910 -126.28537 41027 ft 459 kts 322°
2026-04-23 00:32 49.83008 -126.34479 41043 ft 459 kts 322°
2026-04-23 00:32 49.88095 -126.40425 41039 ft 460 kts 321°
2026-04-23 00:33 49.93212 -126.46422 41057 ft 461 kts 321°
2026-04-23 00:33 49.98331 -126.52437 41056 ft 461 kts 321°
2026-04-23 00:34 50.03452 -126.58471 41075 ft 461 kts 321°
2026-04-23 00:34 50.08531 -126.64471 41083 ft 460 kts 321°
2026-04-23 00:35 50.13620 -126.70502 41101 ft 459 kts 321°
2026-04-23 00:35 50.18704 -126.76542 41098 ft 458 kts 321°
2026-04-23 00:36 50.23748 -126.82550 41129 ft 455 kts 321°
2026-04-23 00:36 50.28750 -126.88525 41136 ft 454 kts 321°
2026-04-23 00:37 50.33778 -126.94548 41138 ft 453 kts 321°
2026-04-23 00:37 50.38779 -127.00556 41145 ft 453 kts 321°
2026-04-23 00:38 50.43753 -127.06547 41170 ft 453 kts 321°
2026-04-23 00:38 50.48757 -127.12590 41183 ft 453 kts 321°
2026-04-23 00:39 50.53757 -127.18645 41180 ft 454 kts 321°
2026-04-23 00:39 50.58739 -127.24695 41187 ft 455 kts 321°
2026-04-23 00:40 50.63752 -127.30799 41183 ft 455 kts 321°
2026-04-23 00:40 50.68729 -127.36992 41186 ft 455 kts 318°
2026-04-23 00:41 50.73248 -127.43951 41193 ft 454 kts 314°
2026-04-23 00:41 50.77664 -127.51066 41181 ft 453 kts 314°
2026-04-23 00:42 50.82087 -127.58187 41187 ft 453 kts 314°
2026-04-23 00:42 50.86479 -127.65232 41189 ft 451 kts 314°
2026-04-23 00:43 50.90886 -127.72302 41197 ft 451 kts 314°
2026-04-23 00:43 50.95302 -127.79405 41204 ft 451 kts 314°
2026-04-23 00:44 50.99706 -127.86509 41209 ft 451 kts 314°
2026-04-23 00:44 51.04107 -127.93629 41208 ft 452 kts 314°
2026-04-23 00:45 51.08534 -128.00813 41219 ft 456 kts 314°
2026-04-23 00:45 51.12962 -128.08021 41212 ft 458 kts 314°
2026-04-23 00:46 51.17413 -128.15285 41222 ft 458 kts 314°
2026-04-23 00:46 51.21847 -128.22545 41217 ft 456 kts 314°
2026-04-23 00:47 51.26264 -128.29796 41214 ft 455 kts 314°
2026-04-23 00:47 51.30682 -128.37072 41219 ft 455 kts 314°
2026-04-23 00:48 51.35075 -128.44327 41235 ft 456 kts 314°
2026-04-23 00:48 51.39485 -128.51632 41235 ft 455 kts 314°
2026-04-23 00:49 51.43880 -128.58934 41244 ft 456 kts 314°
2026-04-23 00:49 51.48266 -128.66243 41242 ft 455 kts 314°
2026-04-23 00:50 51.52611 -128.73504 41247 ft 454 kts 314°
2026-04-23 00:50 51.56995 -128.80852 41239 ft 454 kts 314°
2026-04-23 00:51 51.61357 -128.88185 41256 ft 454 kts 314°
2026-04-23 00:51 51.65722 -128.95545 41245 ft 453 kts 314°
2026-04-23 00:52 51.70072 -129.02901 41262 ft 453 kts 314°
2026-04-23 00:52 51.74395 -129.10234 41255 ft 452 kts 314°
2026-04-23 00:53 51.78739 -129.17624 41270 ft 453 kts 314°
2026-04-23 00:53 51.83062 -129.25000 41279 ft 452 kts 314°
2026-04-23 00:54 51.87390 -129.32409 41270 ft 452 kts 314°
2026-04-23 00:54 51.91682 -129.39776 41275 ft 453 kts 314°
2026-04-23 00:55 51.96004 -129.47217 41290 ft 453 kts 314°
2026-04-23 00:55 52.00309 -129.54653 41277 ft 451 kts 314°
2026-04-23 00:56 52.04613 -129.62107 41288 ft 451 kts 314°
2026-04-23 00:56 52.08904 -129.69561 41291 ft 451 kts 314°
2026-04-23 00:57 52.13185 -129.77023 41297 ft 451 kts 314°
2026-04-23 00:57 52.17439 -129.84458 41301 ft 451 kts 314°
2026-04-23 00:58 52.21713 -129.91951 41304 ft 450 kts 314°
2026-04-23 00:58 52.25980 -129.99456 41313 ft 451 kts 314°
2026-04-23 00:59 52.30250 -130.06986 41308 ft 450 kts 314°
2026-04-23 00:59 52.34493 -130.14494 41319 ft 449 kts 314°
2026-04-23 01:00 52.38694 -130.21950 41325 ft 447 kts 314°
2026-04-23 01:00 52.42881 -130.29404 41324 ft 442 kts 314°
2026-04-23 01:01 52.47031 -130.36812 41327 ft 440 kts 314°
2026-04-23 01:01 52.51159 -130.44204 41338 ft 439 kts 313°
2026-04-23 01:02 52.55281 -130.51606 41337 ft 439 kts 313°
2026-04-23 01:02 52.59409 -130.59044 41345 ft 441 kts 313°
2026-04-23 01:03 52.63552 -130.66529 41346 ft 443 kts 313°
2026-04-23 01:03 52.67007 -130.72789 41343 ft 444 kts 313°
2026-04-23 01:04 52.71167 -130.80348 41352 ft 446 kts 313°
2026-04-23 01:04 52.77399 -130.91716 41362 ft 447 kts 313°
2026-04-23 01:05 52.81577 -130.99367 41358 ft 448 kts 313°
2026-04-23 01:05 52.85747 -131.07027 41363 ft 448 kts 313°
2026-04-23 01:06 52.89909 -131.14695 41369 ft 447 kts 313°
2026-04-23 01:06 52.94064 -131.22375 41370 ft 447 kts 313°
2026-04-23 01:07 52.98202 -131.30047 41375 ft 446 kts 313°
2026-04-23 01:07 53.02334 -131.37731 41377 ft 446 kts 313°
2026-04-23 01:08 53.06432 -131.45377 41383 ft 445 kts 313°
2026-04-23 01:08 53.10545 -131.53074 41384 ft 445 kts 313°
2026-04-23 01:09 53.14656 -131.60793 41387 ft 445 kts 313°
2026-04-23 01:09 53.18765 -131.68528 41389 ft 445 kts 313°
2026-04-23 01:10 53.22907 -131.76207 41394 ft 445 kts 316°
2026-04-23 01:10 53.27662 -131.82796 41404 ft 444 kts 325°
2026-04-23 01:11 53.32947 -131.88157 41406 ft 444 kts 330°
2026-04-23 01:11 53.38343 -131.93139 41369 ft 445 kts 331°
2026-04-23 01:12 53.43764 -131.98166 41382 ft 445 kts 330°
2026-04-23 01:12 53.49186 -132.03262 41389 ft 446 kts 330°
2026-04-23 01:13 53.54604 -132.08395 41402 ft 446 kts 330°
2026-04-23 01:13 53.59975 -132.13504 41412 ft 446 kts 330°
2026-04-23 01:14 53.65385 -132.18663 41417 ft 446 kts 330°
2026-04-23 01:14 53.70786 -132.23828 41417 ft 446 kts 330°
2026-04-23 01:15 53.76155 -132.28978 41421 ft 445 kts 330°
2026-04-23 01:15 53.81545 -132.34163 41424 ft 445 kts 330°
2026-04-23 01:16 53.86940 -132.39368 41421 ft 445 kts 330°
2026-04-23 01:16 53.92289 -132.44545 41426 ft 445 kts 330°
2026-04-23 01:17 53.97664 -132.49762 41429 ft 445 kts 330°
2026-04-23 01:17 54.03043 -132.54999 41430 ft 445 kts 330°
2026-04-23 01:18 54.08388 -132.60218 41436 ft 445 kts 330°
2026-04-23 01:18 54.13752 -132.65472 41448 ft 445 kts 330°
2026-04-23 01:19 54.19118 -132.70743 41445 ft 445 kts 330°
2026-04-23 01:19 54.24481 -132.76027 41453 ft 444 kts 330°
2026-04-23 01:20 54.29843 -132.81327 41448 ft 444 kts 330°
2026-04-23 01:20 54.35190 -132.86629 41450 ft 444 kts 329°
2026-04-23 01:21 54.40511 -132.91920 41447 ft 444 kts 329°
2026-04-23 01:21 54.45861 -132.97257 41444 ft 444 kts 329°
2026-04-23 01:22 54.51208 -133.02605 41446 ft 445 kts 329°
2026-04-23 01:22 54.56558 -133.07954 41442 ft 445 kts 329°
2026-04-23 01:23 54.61638 -133.14019 41445 ft 444 kts 322°
2026-04-23 01:23 54.66488 -133.20661 41441 ft 445 kts 322°
2026-04-23 01:24 54.71325 -133.27338 41442 ft 445 kts 322°
2026-04-23 01:24 54.76135 -133.33952 41442 ft 445 kts 322°
2026-04-23 01:25 54.81000 -133.40634 41442 ft 445 kts 322°
2026-04-23 01:25 54.85846 -133.47302 41442 ft 444 kts 322°
2026-04-23 01:26 54.90688 -133.53986 41442 ft 444 kts 322°
2026-04-23 01:26 54.95499 -133.60650 41443 ft 444 kts 322°
2026-04-23 01:27 55.00334 -133.67369 41441 ft 444 kts 322°
2026-04-23 01:27 55.05164 -133.74101 41441 ft 444 kts 322°
2026-04-23 01:28 55.09983 -133.80841 41446 ft 444 kts 322°
2026-04-23 01:28 55.14807 -133.87609 41444 ft 444 kts 322°
2026-04-23 01:29 55.19616 -133.94376 41444 ft 444 kts 321°
2026-04-23 01:29 55.24402 -134.01134 41443 ft 444 kts 321°
2026-04-23 01:30 55.29202 -134.07933 41452 ft 443 kts 321°
2026-04-23 01:30 55.34005 -134.14758 41450 ft 443 kts 321°
2026-04-23 01:31 55.38793 -134.21584 41450 ft 443 kts 321°
2026-04-23 01:31 55.43585 -134.28437 41447 ft 443 kts 321°
2026-04-23 01:32 55.48370 -134.35302 41450 ft 443 kts 321°
2026-04-23 01:32 55.53123 -134.42143 41450 ft 443 kts 321°
2026-04-23 01:33 55.57901 -134.49043 41450 ft 443 kts 321°
2026-04-23 01:33 55.62673 -134.55957 41453 ft 443 kts 321°
2026-04-23 01:34 55.67442 -134.62888 41452 ft 443 kts 321°
2026-04-23 01:34 55.72207 -134.69836 41453 ft 443 kts 321°
2026-04-23 01:35 55.76939 -134.76759 41454 ft 443 kts 321°
2026-04-23 01:35 55.81698 -134.83744 41456 ft 443 kts 321°
2026-04-23 01:36 55.86449 -134.90739 41455 ft 443 kts 321°
2026-04-23 01:36 55.91190 -134.97744 41454 ft 443 kts 321°
2026-04-23 01:37 55.95931 -135.04771 41459 ft 443 kts 321°
2026-04-23 01:37 56.00642 -135.11778 41460 ft 443 kts 320°
2026-04-23 01:38 56.05383 -135.18852 41458 ft 442 kts 320°
2026-04-23 01:38 56.10086 -135.25892 41458 ft 442 kts 320°
2026-04-23 01:39 56.14805 -135.32979 41462 ft 442 kts 320°
2026-04-23 01:39 56.19529 -135.40098 41463 ft 442 kts 320°
2026-04-23 01:40 56.24238 -135.47217 41464 ft 442 kts 320°
2026-04-23 01:40 56.28910 -135.54305 41464 ft 442 kts 320°
2026-04-23 01:41 56.33607 -135.61454 41465 ft 442 kts 320°
2026-04-23 01:41 56.38298 -135.68618 41464 ft 441 kts 320°
2026-04-23 01:42 56.42985 -135.75799 41463 ft 441 kts 320°
2026-04-23 01:42 56.47666 -135.82995 41466 ft 441 kts 320°
2026-04-23 01:43 56.52345 -135.90213 41462 ft 442 kts 320°
2026-04-23 01:43 56.56988 -135.97400 41468 ft 442 kts 320°
2026-04-23 01:44 56.61661 -136.04656 41466 ft 442 kts 320°
2026-04-23 01:44 56.66335 -136.11940 41466 ft 442 kts 320°
2026-04-23 01:45 56.71005 -136.19241 41468 ft 442 kts 320°
2026-04-23 01:45 56.75637 -136.26507 41464 ft 442 kts 319°
2026-04-23 01:46 56.80295 -136.33840 41464 ft 442 kts 319°
2026-04-23 01:46 56.84951 -136.41193 41465 ft 442 kts 319°
2026-04-23 01:47 56.89612 -136.48581 41465 ft 442 kts 319°
2026-04-23 01:47 56.94226 -136.55919 41466 ft 442 kts 319°
2026-04-23 01:48 56.98864 -136.63320 41462 ft 442 kts 319°
2026-04-23 01:48 57.03499 -136.70742 41465 ft 442 kts 319°
2026-04-23 01:49 57.08132 -136.78186 41463 ft 442 kts 319°
2026-04-23 01:49 57.12762 -136.85652 41461 ft 442 kts 319°
2026-04-23 01:50 57.17383 -136.93129 41461 ft 442 kts 319°
2026-04-23 01:50 57.22001 -137.00625 41461 ft 442 kts 318°
2026-04-23 01:51 57.26588 -137.08099 41458 ft 442 kts 318°
2026-04-23 01:51 57.31198 -137.15637 41457 ft 442 kts 318°
2026-04-23 01:52 57.35027 -137.21917 41456 ft 442 kts 318°
2026-04-23 01:52 57.40383 -137.30731 41459 ft 442 kts 318°
2026-04-23 01:53 57.44974 -137.38317 41457 ft 442 kts 318°
2026-04-23 01:53 57.48786 -137.44634 41457 ft 442 kts 318°
2026-04-23 01:54 57.53380 -137.52273 41455 ft 442 kts 318°
2026-04-23 01:54 57.57962 -137.59919 41454 ft 442 kts 317°
2026-04-23 01:55 57.62541 -137.67587 41456 ft 442 kts 317°
2026-04-23 01:55 57.67116 -137.75275 41448 ft 442 kts 317°
2026-04-23 01:56 57.71650 -137.82958 41451 ft 442 kts 316°
2026-04-23 01:56 57.75715 -137.91577 41460 ft 442 kts 308°
2026-04-23 01:57 57.79505 -138.00642 41454 ft 442 kts 308°
2026-04-23 01:57 57.83293 -138.09739 41449 ft 442 kts 308°
2026-04-23 01:58 57.87071 -138.18784 41452 ft 442 kts 308°
2026-04-23 01:58 57.90871 -138.27884 41452 ft 443 kts 308°
2026-04-23 01:59 57.94669 -138.37005 41455 ft 443 kts 308°
2026-04-23 01:59 57.98468 -138.46167 41449 ft 443 kts 308°
2026-04-23 02:00 58.02258 -138.55341 41452 ft 443 kts 308°
2026-04-23 02:00 58.06042 -138.64539 41450 ft 444 kts 308°
2026-04-23 02:01 58.09826 -138.73770 41449 ft 444 kts 308°
2026-04-23 02:01 58.13602 -138.83019 41456 ft 444 kts 307°
2026-04-23 02:02 58.17375 -138.92297 41446 ft 444 kts 307°
2026-04-23 02:02 58.21114 -139.01528 41451 ft 444 kts 307°
2026-04-23 02:03 58.24871 -139.10839 41449 ft 444 kts 307°
2026-04-23 02:03 58.28626 -139.20181 41442 ft 444 kts 307°
2026-04-23 02:04 58.32365 -139.29522 41457 ft 444 kts 307°
2026-04-23 02:04 58.36083 -139.38843 41438 ft 444 kts 307°
2026-04-23 02:05 58.39819 -139.48250 41439 ft 444 kts 307°
2026-04-23 02:05 58.43527 -139.57621 41444 ft 444 kts 307°
2026-04-23 02:06 58.47268 -139.67116 41444 ft 445 kts 307°
2026-04-23 02:06 58.50957 -139.76513 41441 ft 445 kts 307°
2026-04-23 02:07 58.54669 -139.86008 41441 ft 445 kts 306°
2026-04-23 02:07 58.58378 -139.95535 41443 ft 445 kts 306°
2026-04-23 02:08 58.62080 -140.05079 41441 ft 446 kts 306°
2026-04-23 02:08 58.65753 -140.14590 41440 ft 446 kts 306°
2026-04-23 02:09 58.69451 -140.24202 41439 ft 447 kts 306°
2026-04-23 02:09 58.73147 -140.33850 41437 ft 447 kts 306°
2026-04-23 02:10 58.76811 -140.43449 41437 ft 447 kts 306°
2026-04-23 02:10 58.80470 -140.53149 41443 ft 448 kts 304°
2026-04-23 02:11 58.83754 -140.63379 41434 ft 448 kts 301°
2026-04-23 02:11 58.86940 -140.73739 41436 ft 448 kts 300°
2026-04-23 02:12 58.90127 -140.84110 41430 ft 448 kts 300°
2026-04-23 02:12 58.93304 -140.94428 41430 ft 449 kts 300°
2026-04-23 02:13 58.96497 -141.04820 41427 ft 449 kts 300°
2026-04-23 02:13 58.99684 -141.15233 41429 ft 449 kts 300°
2026-04-23 02:14 59.02868 -141.25687 41430 ft 449 kts 300°
2026-04-23 02:14 59.06045 -141.36164 41427 ft 450 kts 300°
2026-04-23 02:15 59.10792 -141.51911 41432 ft 450 kts 300°
2026-04-23 02:16 59.13954 -141.62460 41422 ft 451 kts 300°
2026-04-23 02:16 59.17087 -141.72958 41421 ft 450 kts 299°
2026-04-23 02:17 59.20228 -141.83531 41425 ft 450 kts 299°
2026-04-23 02:17 59.23365 -141.94141 41421 ft 450 kts 299°
2026-04-23 02:18 59.26488 -142.04749 41423 ft 450 kts 299°
2026-04-23 02:18 59.29592 -142.15345 41419 ft 450 kts 299°
2026-04-23 02:19 59.32699 -142.25998 41420 ft 450 kts 298°
2026-04-23 02:19 59.35800 -142.36680 41419 ft 450 kts 298°
2026-04-23 02:20 59.38887 -142.47361 41414 ft 450 kts 298°
2026-04-23 02:20 59.41947 -142.58003 41413 ft 451 kts 298°
2026-04-23 02:21 59.45021 -142.68739 41412 ft 450 kts 298°
2026-04-23 02:21 59.48081 -142.79480 41414 ft 450 kts 298°
2026-04-23 02:22 59.51135 -142.90247 41413 ft 450 kts 298°
2026-04-23 02:22 59.54178 -143.01027 41410 ft 450 kts 297°
2026-04-23 02:23 59.57214 -143.11834 41404 ft 450 kts 297°
2026-04-23 02:23 59.60223 -143.22596 41406 ft 450 kts 297°
2026-04-23 02:24 59.63242 -143.33447 41393 ft 450 kts 297°
2026-04-23 02:24 59.66255 -143.44318 41396 ft 451 kts 297°
2026-04-23 02:25 59.69268 -143.55229 41399 ft 451 kts 297°
2026-04-23 02:25 59.72267 -143.66091 41402 ft 451 kts 297°
2026-04-23 02:26 59.75269 -143.77010 41395 ft 452 kts 297°
2026-04-23 02:26 59.78270 -143.87980 41391 ft 452 kts 296°
2026-04-23 02:27 59.81262 -143.98979 41391 ft 452 kts 296°
2026-04-23 02:27 59.84245 -144.09996 41388 ft 453 kts 296°
2026-04-23 02:28 59.87222 -144.21046 41387 ft 453 kts 296°
2026-04-23 02:28 59.90191 -144.32119 41386 ft 453 kts 296°
2026-04-23 02:29 59.93152 -144.43218 41388 ft 453 kts 296°
2026-04-23 02:29 59.96089 -144.54280 41377 ft 454 kts 296°
2026-04-23 02:30 59.99037 -144.65438 41382 ft 454 kts 295°
2026-04-23 02:30 60.01981 -144.76640 41375 ft 454 kts 295°
2026-04-23 02:31 60.04898 -144.87790 41375 ft 454 kts 295°
2026-04-23 02:31 60.07821 -144.99025 41372 ft 455 kts 295°
2026-04-23 02:32 60.10739 -145.10294 41374 ft 455 kts 295°
2026-04-23 02:32 60.13626 -145.21500 41373 ft 455 kts 295°
2026-04-23 02:33 60.16526 -145.32813 41368 ft 455 kts 295°
2026-04-23 02:33 60.19416 -145.44145 41373 ft 456 kts 294°
2026-04-23 02:34 60.22302 -145.55519 41372 ft 456 kts 294°
2026-04-23 02:34 60.25176 -145.66905 41374 ft 456 kts 294°
2026-04-23 02:35 60.28044 -145.78328 41375 ft 456 kts 294°
2026-04-23 02:35 60.30900 -145.89759 41372 ft 457 kts 294°
2026-04-23 02:36 60.33731 -146.01151 41372 ft 457 kts 294°
2026-04-23 02:36 60.36568 -146.12625 41371 ft 457 kts 294°
2026-04-23 02:37 60.39396 -146.24124 41370 ft 457 kts 293°
2026-04-23 02:37 60.42219 -146.35663 41372 ft 458 kts 293°
2026-04-23 02:38 60.45035 -146.47227 41367 ft 458 kts 293°
2026-04-23 02:38 60.47911 -146.58781 41366 ft 460 kts 296°
2026-04-23 02:39 60.51538 -146.69526 41373 ft 463 kts 303°
2026-04-23 02:39 60.55446 -146.79945 41369 ft 464 kts 303°
2026-04-23 02:40 60.59303 -146.90395 41358 ft 465 kts 303°
2026-04-23 02:40 60.63154 -147.00971 41361 ft 465 kts 303°
2026-04-23 02:41 60.66978 -147.11627 41355 ft 465 kts 302°
2026-04-23 02:41 60.70752 -147.22380 41357 ft 465 kts 302°
2026-04-23 02:42 60.74491 -147.33092 41276 ft 467 kts 302°
2026-04-23 02:42 60.76404 -147.38588 40498 ft 477 kts 302°
2026-04-23 02:42 60.77675 -147.42240 40114 ft 474 kts 301°
2026-04-23 02:42 60.80237 -147.49607 39079 ft 474 kts 301°
2026-04-23 02:43 60.81506 -147.53260 38452 ft 474 kts 301°
2026-04-23 02:43 60.83416 -147.58775 37561 ft 472 kts 300°
2026-04-23 02:43 60.85310 -147.64255 36714 ft 470 kts 300°
2026-04-23 02:43 60.87197 -147.69726 35829 ft 469 kts 299°
2026-04-23 02:44 60.89079 -147.75204 34845 ft 470 kts 299°
2026-04-23 02:44 60.90939 -147.80631 33767 ft 471 kts 298°
2026-04-23 02:44 60.92826 -147.86159 32611 ft 472 kts 299°
2026-04-23 02:44 60.94717 -147.91706 31453 ft 472 kts 299°
2026-04-23 02:45 60.96607 -147.97257 30493 ft 470 kts 300°
2026-04-23 02:45 60.98476 -148.02752 29551 ft 465 kts 300°
2026-04-23 02:45 61.00313 -148.08163 28716 ft 458 kts 300°
2026-04-23 02:45 61.02100 -148.13444 27940 ft 452 kts 300°
2026-04-23 02:46 61.03886 -148.18740 27143 ft 446 kts 300°
2026-04-23 02:46 61.05646 -148.23974 26374 ft 442 kts 300°
2026-04-23 02:46 61.07390 -148.29175 25607 ft 438 kts 300°
2026-04-23 02:46 61.09120 -148.34340 24852 ft 435 kts 300°
2026-04-23 02:47 61.10838 -148.39478 24109 ft 432 kts 300°
2026-04-23 02:47 61.12531 -148.44588 23267 ft 429 kts 298°
2026-04-23 02:47 61.14019 -148.49881 22421 ft 423 kts 292°
2026-04-23 02:47 61.15205 -148.55330 21657 ft 415 kts 286°
2026-04-23 02:48 61.16182 -148.60911 20924 ft 411 kts 285°
2026-04-23 02:48 61.17137 -148.66479 20200 ft 408 kts 284°
2026-04-23 02:48 61.18088 -148.72012 19471 ft 406 kts 284°
2026-04-23 02:48 61.19039 -148.77512 18764 ft 403 kts 284°
2026-04-23 02:49 61.19989 -148.82980 17991 ft 402 kts 284°
2026-04-23 02:49 61.20936 -148.88427 17197 ft 398 kts 284°
2026-04-23 02:49 61.21860 -148.93748 16330 ft 397 kts 284°
2026-04-23 02:49 61.22788 -148.99110 15568 ft 393 kts 284°
2026-04-23 02:50 61.23699 -149.04418 14967 ft 387 kts 283°
2026-04-23 02:50 61.24421 -149.09741 14310 ft 380 kts 277°
2026-04-23 02:50 61.24835 -149.15074 13657 ft 369 kts 270°
2026-04-23 02:50 61.25156 -149.20222 13357 ft 347 kts 272°
2026-04-23 02:51 61.25459 -149.25071 13266 ft 331 kts 270°
2026-04-23 02:51 61.25703 -149.29721 13166 ft 316 kts 269°
2026-04-23 02:51 61.25948 -149.34180 13059 ft 304 kts 269°
2026-04-23 02:51 61.26195 -149.38452 12953 ft 291 kts 269°
2026-04-23 02:52 61.26437 -149.42524 12853 ft 278 kts 269°
2026-04-23 02:52 61.26666 -149.46492 12394 ft 279 kts 269°
2026-04-23 02:52 61.26890 -149.50470 11960 ft 280 kts 268°
2026-04-23 02:52 61.27178 -149.54468 11609 ft 282 kts 273°
2026-04-23 02:53 61.27631 -149.58464 11238 ft 285 kts 276°
2026-04-23 02:53 61.28138 -149.62443 10874 ft 285 kts 276°
2026-04-23 02:53 61.28655 -149.66408 10533 ft 284 kts 276°
2026-04-23 02:53 61.29177 -149.70357 10224 ft 281 kts 276°
2026-04-23 02:54 61.29702 -149.74281 9825 ft 282 kts 276°
2026-04-23 02:54 61.30158 -149.78195 9456 ft 272 kts 270°
2026-04-23 02:54 61.30341 -149.82069 9135 ft 266 kts 265°
2026-04-23 02:54 61.30453 -149.85893 8860 ft 262 kts 265°
2026-04-23 02:55 61.30554 -149.89615 8627 ft 258 kts 264°
2026-04-23 02:55 61.30653 -149.93306 8430 ft 252 kts 264°
2026-04-23 02:55 61.30750 -149.96936 8172 ft 252 kts 264°
2026-04-23 02:55 61.30840 -150.00629 7680 ft 259 kts 264°
2026-04-23 02:56 61.30921 -150.04421 7190 ft 265 kts 264°
2026-04-23 02:56 61.30989 -150.08253 6740 ft 271 kts 265°
2026-04-23 02:56 61.31042 -150.12218 6239 ft 277 kts 264°
2026-04-23 02:56 61.31086 -150.16273 5727 ft 282 kts 264°
2026-04-23 02:57 61.31121 -150.20382 5214 ft 287 kts 264°
2026-04-23 02:57 61.31152 -150.24509 4955 ft 281 kts 264°
2026-04-23 02:57 61.31185 -150.28500 4885 ft 268 kts 264°
2026-04-23 02:57 61.31223 -150.32289 4870 ft 256 kts 264°
2026-04-23 02:58 61.31261 -150.36049 4887 ft 263 kts 264°
2026-04-23 02:58 61.31294 -150.39849 4891 ft 267 kts 264°
2026-04-23 02:58 61.31256 -150.43693 4881 ft 260 kts 253°
2026-04-23 02:58 61.30550 -150.47030 4887 ft 249 kts 225°
2026-04-23 02:59 61.29210 -150.49110 4715 ft 238 kts 198°
2026-04-23 02:59 61.27583 -150.49624 4204 ft 237 kts 178°
2026-04-23 02:59 61.25918 -150.49456 3707 ft 243 kts 175°
2026-04-23 02:59 61.24238 -150.49215 3204 ft 248 kts 174°
2026-04-23 03:00 61.22523 -150.48967 2942 ft 243 kts 174°
2026-04-23 03:00 61.20872 -150.48737 2883 ft 231 kts 174°
2026-04-23 03:00 61.19312 -150.48530 2861 ft 217 kts 174°
2026-04-23 03:00 61.17922 -150.47728 2632 ft 206 kts 146°
2026-04-23 03:01 61.17052 -150.45419 2349 ft 209 kts 111°
2026-04-23 03:01 61.16817 -150.42420 1877 ft 215 kts 98°
2026-04-23 03:01 61.16742 -150.39280 1549 ft 217 kts 94°
2026-04-23 03:01 61.16735 -150.36204 1484 ft 207 kts 92°
2026-04-23 03:02 61.16741 -150.33316 1484 ft 192 kts 92°
2026-04-23 03:02 61.16747 -150.30690 1482 ft 177 kts 93°
2026-04-23 03:02 61.16751 -150.28294 1473 ft 153 kts 93°
2026-04-23 03:02 61.16754 -150.26218 1450 ft 138 kts 94°
2026-04-23 03:03 61.16755 -150.24269 1465 ft 134 kts 94°
2026-04-23 03:03 61.16756 -150.22323 1474 ft 136 kts 94°
2026-04-23 03:03 61.16758 -150.20379 1492 ft 136 kts 94°
2026-04-23 03:03 61.16761 -150.18436 1467 ft 130 kts 94°
2026-04-23 03:04 61.16765 -150.16627 1393 ft 124 kts 94°
2026-04-23 03:04 61.16766 -150.14893 1216 ft 120 kts 94°
2026-04-23 03:04 61.16767 -150.13155 1042 ft 122 kts 93°
2026-04-23 03:04 61.16770 -150.11368 868 ft 124 kts 92°
2026-04-23 03:05 61.16773 -150.09616 688 ft 120 kts 92°
2026-04-23 03:05 61.16775 -150.07885 521 ft 121 kts 92°
2026-04-23 03:05 61.16780 -150.06167 359 ft 116 kts 94°
2026-04-23 03:05 61.16787 -150.04526 208 ft 111 kts 96°
2026-04-23 03:06 61.16792 -150.02907 145 ft 113 kts 93°
2026-04-23 03:06 61.16783 -150.01519 141 ft 84 kts 89°
2026-04-23 03:06 61.16781 -150.00388 137 ft 65 kts 89°
2026-04-23 03:06 61.16783 -149.99684 133 ft 44 kts 90°
2026-04-23 03:07 61.16784 -149.99076 129 ft 41 kts 90°
2026-04-23 03:07 61.16804 -149.98500 121 ft 40 kts 76°
2026-04-23 03:07 61.16880 -149.98150 115 ft 1 kts 57°
2026-04-23 03:07 61.16890 -149.98115 115 ft 5 kts 58°
2026-04-23 03:08 61.16914 -149.98035 115 ft 9 kts 58°
2026-04-23 03:08 61.16968 -149.97873 115 ft 18 kts 46°
2026-04-23 03:08 61.17097 -149.97882 113 ft 24 kts 299°
2026-04-23 03:08 61.17109 -149.98215 116 ft 23 kts 269°
2026-04-23 03:09 61.17110 -149.98510 117 ft 12 kts 270°
2026-04-23 03:09 61.17110 -149.98528 117 ft 0 kts 270°
2026-04-23 03:10 61.17110 -149.98545 117 ft 9 kts 270°
2026-04-23 03:10 61.17181 -149.98712 114 ft 20 kts 335°
2026-04-23 03:11 61.17323 -149.98815 112 ft 24 kts 334°
2026-04-23 03:11 61.17482 -149.98966 110 ft 22 kts 336°
2026-04-23 03:11 61.17605 -149.99061 109 ft 19 kts 358°
2026-04-23 03:11 61.17670 -149.98997 108 ft 9 kts 50°
2026-04-23 03:12 61.17688 -149.98872 109 ft 9 kts 82°
2026-04-23 03:12 61.17701 -149.98775 108 ft 0 kts 69°
2026-04-23 03:12 61.17703 -149.98765 109 ft 7 kts 69°
2026-04-23 03:12 61.17718 -149.98713 110 ft 4 kts 41°
2026-04-23 03:13 61.17746 -149.98714 108 ft 5 kts 341°
2026-04-23 03:13 61.17773 -149.98736 110 ft 1 kts 339°
2026-04-23 03:13 61.17779 -149.98740 109 ft 0 kts 339°